TimeMDT,TemperatureF,Dew PointF,Humidity,Sea Level PressureIn,VisibilityMPH,Wind Direction,Wind SpeedMPH,Gust SpeedMPH,PrecipitationIn,Events,Conditions,WindDirDegrees,DateUTC
12:53 AM,52.0,28.0,40,29.87,10.0,SSE,9.2,-,N/A,,Clear,160,2012-09-25 06:53:00
1:53 AM,51.1,28.9,43,29.86,10.0,South,10.4,-,N/A,,Clear,170,2012-09-25 07:53:00
2:53 AM,52.0,28.9,41,29.85,10.0,SSE,9.2,-,N/A,,Clear,160,2012-09-25 08:53:00
3:53 AM,46.0,28.9,51,29.86,10.0,NNE,4.6,-,N/A,,Clear,30,2012-09-25 09:53:00
4:53 AM,45.0,28.9,53,29.87,10.0,Calm,Calm,-,N/A,,Clear,0,2012-09-25 10:53:00
5:53 AM,45.0,28.9,53,29.88,10.0,SSE,3.5,-,N/A,,Clear,160,2012-09-25 11:53:00
6:53 AM,46.0,28.9,51,29.91,10.0,SSE,4.6,-,N/A,,Clear,150,2012-09-25 12:53:00
7:53 AM,51.1,30.9,46,29.93,10.0,SE,4.6,-,N/A,,Clear,130,2012-09-25 13:53:00
8:53 AM,60.1,32.0,35,29.92,10.0,SSE,6.9,-,N/A,,Clear,150,2012-09-25 14:53:00
9:53 AM,66.0,34.0,30,29.91,10.0,SE,8.1,-,N/A,,Clear,140,2012-09-25 15:53:00
10:53 AM,71.1,35.1,27,29.89,10.0,South,8.1,-,N/A,,Clear,170,2012-09-25 16:53:00
11:53 AM,73.0,33.1,23,29.88,10.0,SE,11.5,-,N/A,,Clear,130,2012-09-25 17:53:00
12:53 PM,75.2,26.6,17,29.97,10.0,ESE,11.5,-,N/A,,Clear,110,2012-09-25 18:53:00
1:53 PM,75.9,24.1,15,29.85,10.0,ESE,11.5,-,N/A,,Clear,110,2012-09-25 19:53:00
2:53 PM,78.1,25.0,14,29.83,10.0,Variable,6.9,-,N/A,,Clear,0,2012-09-25 20:53:00
3:53 PM,78.1,24.1,14,29.84,10.0,East,3.5,-,N/A,,Clear,80,2012-09-25 21:53:00
4:53 PM,78.8,21.2,12,29.95,10.0,NE,8.1,-,N/A,,Clear,50,2012-09-25 22:53:00
5:53 PM,73.9,21.9,14,29.87,10.0,ENE,5.8,-,N/A,,Clear,70,2012-09-25 23:53:00
6:53 PM,59.0,21.0,23,29.91,10.0,Calm,Calm,-,N/A,,Clear,0,2012-09-26 00:53:00
7:53 PM,50.0,21.9,33,29.94,10.0,SSW,4.6,-,N/A,,Clear,210,2012-09-26 01:53:00
8:53 PM,57.0,26.1,30,29.92,10.0,Calm,Calm,-,N/A,,Clear,0,2012-09-26 02:53:00
9:53 PM,51.1,26.1,38,29.94,10.0,Calm,Calm,-,N/A,,Clear,0,2012-09-26 03:53:00
10:53 PM,53.6,35.6,51,30.01,10.0,Calm,Calm,-,N/A,,Clear,0,2012-09-26 04:53:00
11:53 PM,55.9,39.9,55,29.91,10.0,South,9.2,-,N/A,,Clear,170,2012-09-26 05:53:00